TimeCST,TemperatureF,Dew PointF,Humidity,Sea Level PressureIn,VisibilityMPH,Wind Direction,Wind SpeedMPH,Gust SpeedMPH,PrecipitationIn,Events,Conditions,WindDirDegrees,DateUTC
12:15 AM,10.4,5.0,79,30.03,5.0,WNW,9.2,-,N/A,,Overcast,290,2012-12-29 06:15:00
12:35 AM,10.4,5.0,79,30.03,4.0,WNW,8.1,-,N/A,,Overcast,290,2012-12-29 06:35:00
12:55 AM,8.6,3.2,79,30.03,2.5,WNW,8.1,-,N/A,,Overcast,290,2012-12-29 06:55:00
1:15 AM,8.6,3.2,79,30.02,2.5,WNW,6.9,-,N/A,,Overcast,300,2012-12-29 07:15:00
1:35 AM,10.4,3.2,73,30.02,3.0,West,8.1,-,N/A,,Overcast,280,2012-12-29 07:35:00
1:55 AM,10.4,3.2,73,30.03,3.0,WNW,8.1,-,N/A,,Overcast,290,2012-12-29 07:55:00
2:15 AM,10.4,5.0,79,30.03,3.0,WNW,9.2,-,N/A,,Overcast,290,2012-12-29 08:15:00
2:35 AM,10.4,5.0,79,30.03,3.0,West,11.5,-,N/A,,Overcast,280,2012-12-29 08:35:00
2:55 AM,10.4,6.8,85,30.03,3.0,WNW,11.5,-,N/A,,Overcast,290,2012-12-29 08:55:00
3:15 AM,10.4,6.8,85,30.04,5.0,WNW,9.2,-,N/A,,Overcast,290,2012-12-29 09:15:00
3:35 AM,10.4,5.0,79,30.04,5.0,West,10.4,-,N/A,,Overcast,280,2012-12-29 09:35:00
3:55 AM,10.4,5.0,79,30.03,7.0,West,8.1,-,N/A,,Overcast,280,2012-12-29 09:55:00
4:15 AM,10.4,5.0,79,30.04,8.0,West,8.1,-,N/A,,Overcast,280,2012-12-29 10:15:00
4:35 AM,10.4,5.0,79,30.05,9.0,West,11.5,-,N/A,,Overcast,280,2012-12-29 10:35:00
4:55 AM,10.4,5.0,79,30.05,7.0,West,11.5,-,N/A,,Overcast,270,2012-12-29 10:55:00
5:15 AM,10.4,3.2,73,30.05,5.0,West,11.5,-,N/A,,Overcast,280,2012-12-29 11:15:00
5:35 AM,10.4,3.2,73,30.05,9.0,West,8.1,-,N/A,,Overcast,270,2012-12-29 11:35:00
5:55 AM,10.4,3.2,73,30.05,7.0,West,10.4,-,N/A,,Overcast,270,2012-12-29 11:55:00
6:15 AM,8.6,3.2,79,30.05,6.0,West,9.2,-,N/A,,Overcast,280,2012-12-29 12:15:00
6:35 AM,8.6,1.4,73,30.05,7.0,West,6.9,-,N/A,,Overcast,260,2012-12-29 12:35:00
6:55 AM,6.8,1.4,79,30.05,10.0,WSW,4.6,-,N/A,,Scattered Clouds,240,2012-12-29 12:55:00
7:15 AM,5.0,-0.4,78,30.05,10.0,WSW,6.9,-,N/A,,Scattered Clouds,250,2012-12-29 13:15:00
7:35 AM,6.8,-0.4,72,30.05,7.0,WSW,8.1,-,N/A,,Scattered Clouds,240,2012-12-29 13:35:00
7:55 AM,6.8,1.4,79,30.05,4.0,WSW,6.9,-,N/A,,Overcast,250,2012-12-29 13:55:00
8:15 AM,6.8,1.4,79,30.05,3.0,WSW,12.7,-,N/A,,Overcast,250,2012-12-29 14:15:00
8:35 AM,6.8,1.4,79,30.07,2.5,West,12.7,-,N/A,,Overcast,260,2012-12-29 14:35:00
8:55 AM,6.8,1.4,79,30.07,1.5,WSW,11.5,-,N/A,,Overcast,250,2012-12-29 14:55:00
9:15 AM,6.8,1.4,79,30.07,2.5,WSW,9.2,-,N/A,,Scattered Clouds,250,2012-12-29 15:15:00
9:35 AM,6.8,1.4,79,30.07,3.0,WSW,10.4,-,N/A,,Partly Cloudy,250,2012-12-29 15:35:00
9:55 AM,6.8,1.4,79,30.07,4.0,WSW,11.5,-,N/A,,Clear,250,2012-12-29 15:55:00
10:15 AM,6.8,1.4,79,30.08,4.0,WSW,8.1,-,N/A,,Clear,250,2012-12-29 16:15:00
10:35 AM,6.8,3.2,85,30.08,5.0,WSW,11.5,-,N/A,,Clear,240,2012-12-29 16:35:00
10:55 AM,6.8,1.4,79,30.08,6.0,WSW,9.2,-,N/A,,Clear,250,2012-12-29 16:55:00
11:15 AM,6.8,1.4,79,30.07,6.0,WSW,9.2,-,N/A,,Clear,250,2012-12-29 17:15:00
11:35 AM,6.8,3.2,85,30.07,7.0,West,6.9,-,N/A,,Clear,260,2012-12-29 17:35:00
11:55 AM,6.8,3.2,85,30.06,8.0,WSW,11.5,16.1,N/A,,Clear,250,2012-12-29 17:55:00
12:15 PM,6.8,1.4,79,30.06,9.0,WSW,15.0,-,N/A,,Clear,250,2012-12-29 18:15:00
12:55 PM,6.8,1.4,79,30.06,9.0,WSW,12.7,-,N/A,,Clear,250,2012-12-29 18:55:00
1:15 PM,6.8,1.4,79,30.06,8.0,West,15.0,-,N/A,,Clear,270,2012-12-29 19:15:00
1:35 PM,6.8,1.4,79,30.06,8.0,West,11.5,-,N/A,,Clear,260,2012-12-29 19:35:00
1:55 PM,6.8,1.4,79,30.06,10.0,West,12.7,-,N/A,,Clear,260,2012-12-29 19:55:00
2:15 PM,6.8,1.4,79,30.05,9.0,WSW,10.4,-,N/A,,Clear,250,2012-12-29 20:15:00
2:35 PM,6.8,1.4,79,30.05,8.0,WSW,10.4,-,N/A,,Clear,250,2012-12-29 20:35:00
2:55 PM,6.8,1.4,79,30.07,5.0,WSW,9.2,-,N/A,,Mostly Cloudy,240,2012-12-29 20:55:00
3:15 PM,8.6,1.4,73,30.07,3.0,WSW,11.5,-,N/A,,Overcast,250,2012-12-29 21:15:00
3:35 PM,8.6,3.2,79,30.07,2.0,WSW,13.8,-,N/A,,Overcast,250,2012-12-29 21:35:00
3:55 PM,8.6,3.2,79,30.08,2.0,WSW,11.5,-,N/A,,Overcast,240,2012-12-29 21:55:00
4:15 PM,10.4,5.0,79,30.08,1.0,WSW,9.2,-,N/A,,Overcast,250,2012-12-29 22:15:00
4:35 PM,10.4,5.0,79,30.08,1.2,WSW,11.5,-,N/A,,Overcast,240,2012-12-29 22:35:00
5:15 PM,10.4,6.8,85,30.08,2.0,WSW,11.5,18.4,N/A,,Overcast,250,2012-12-29 23:15:00
5:35 PM,10.4,6.8,85,30.09,5.0,West,12.7,-,N/A,,Overcast,260,2012-12-29 23:35:00
5:55 PM,10.4,6.8,85,30.08,5.0,WSW,11.5,-,N/A,,Overcast,250,2012-12-29 23:55:00
6:15 PM,10.4,6.8,85,30.08,5.0,WSW,9.2,-,N/A,,Overcast,250,2012-12-30 00:15:00
6:35 PM,10.4,5.0,79,30.09,6.0,WSW,10.4,-,N/A,,Mostly Cloudy,250,2012-12-30 00:35:00
6:55 PM,10.4,3.2,73,30.09,5.0,WSW,9.2,-,N/A,,Mostly Cloudy,240,2012-12-30 00:55:00
7:15 PM,8.6,3.2,79,30.10,6.0,WSW,6.9,-,N/A,,Scattered Clouds,240,2012-12-30 01:15:00
7:35 PM,8.6,3.2,79,30.11,8.0,WSW,4.6,-,N/A,,Clear,240,2012-12-30 01:35:00
7:55 PM,8.6,3.2,79,30.10,8.0,WSW,8.1,-,N/A,,Clear,250,2012-12-30 01:55:00
8:15 PM,10.4,3.2,73,30.11,10.0,WSW,9.2,-,N/A,,Clear,240,2012-12-30 02:15:00
8:35 PM,10.4,3.2,73,30.11,10.0,WSW,5.8,-,N/A,,Clear,240,2012-12-30 02:35:00
8:55 PM,8.6,1.4,73,30.11,10.0,WSW,9.2,-,N/A,,Clear,250,2012-12-30 02:55:00
9:15 PM,8.6,3.2,79,30.11,10.0,WSW,10.4,-,N/A,,Clear,240,2012-12-30 03:15:00
9:35 PM,8.6,1.4,73,30.11,10.0,WSW,9.2,-,N/A,,Clear,250,2012-12-30 03:35:00
9:55 PM,8.6,3.2,79,30.11,10.0,West,8.1,-,N/A,,Clear,260,2012-12-30 03:55:00
10:15 PM,8.6,1.4,73,30.11,10.0,WSW,10.4,-,N/A,,Clear,250,2012-12-30 04:15:00
10:35 PM,8.6,1.4,73,30.12,10.0,WSW,8.1,-,N/A,,Clear,250,2012-12-30 04:35:00
10:55 PM,8.6,3.2,79,30.11,10.0,WSW,8.1,-,N/A,,Clear,240,2012-12-30 04:55:00
11:15 PM,8.6,3.2,79,30.12,10.0,WSW,5.8,-,N/A,,Clear,240,2012-12-30 05:15:00
11:35 PM,8.6,3.2,79,30.13,10.0,WSW,5.8,-,N/A,,Clear,240,2012-12-30 05:35:00
11:55 PM,8.6,1.4,73,30.12,10.0,WSW,4.6,-,N/A,,Clear,240,2012-12-30 05:55:00